GEC8401 ZSPD-EDDF

Flight info

Callsign GEC8401
Flight time N/A
Altitude 27600
Route PIK96D PIKAS G330 PIMOL A593 DALIM W157 VYK G212 SOTMU B339 ASILA A575 UPREK W28 LAGEB W66 NUKTI B215 KABDO W119 GOBOK A343 RULAD M610 ARBOL Z621 GENDI N147 OTBOR A480 TIMGA B476 METKA L88 RASAM N199 EDATA M11 REBLO UM11 CRM UL746 ODERO DCT OPT DCT SOKRU DCT ARSIN DCT SUBEN DCT AKINI T161 DEBHI DEBHI1C
Aircraft B77L/H-SDE1E2E3FGHIJ2J3J4J5M1RWXY/LB1D1

Departure

Time 2026-04-30 11:29
Airport Shanghai Pudong International Airport (ZSPD)

Arrival

Time N/A
Airport Frankfurt Main Airport (EDDF)
Time Latitude Longitude Altitude Speed Heading
2026-04-30 10:56 31.16070 121.79056 27 ft 0 kts 72°
2026-04-30 11:14 31.16068 121.79051 27 ft 4 kts 72°
2026-04-30 11:14 31.16062 121.79020 27 ft 4 kts 80°
2026-04-30 11:14 31.16059 121.78989 27 ft 4 kts 93°
2026-04-30 11:14 31.16064 121.78959 27 ft 4 kts 124°
2026-04-30 11:15 31.16076 121.78946 27 ft 0 kts 162°
2026-04-30 11:20 31.16047 121.78957 27 ft 9 kts 162°
2026-04-30 11:20 31.15994 121.78932 26 ft 9 kts 239°
2026-04-30 11:20 31.15954 121.78879 27 ft 9 kts 191°
2026-04-30 11:20 31.15895 121.78906 27 ft 9 kts 160°
2026-04-30 11:21 31.15833 121.78929 27 ft 9 kts 163°
2026-04-30 11:21 31.15772 121.78951 27 ft 9 kts 162°
2026-04-30 11:21 31.15711 121.78973 27 ft 9 kts 162°
2026-04-30 11:21 31.15650 121.78996 27 ft 9 kts 162°
2026-04-30 11:22 31.15589 121.79019 27 ft 9 kts 162°
2026-04-30 11:22 31.15529 121.79042 27 ft 9 kts 162°
2026-04-30 11:22 31.15468 121.79065 27 ft 9 kts 162°
2026-04-30 11:22 31.15407 121.79089 26 ft 9 kts 162°
2026-04-30 11:23 31.15348 121.79111 27 ft 9 kts 162°
2026-04-30 11:23 31.15287 121.79134 27 ft 9 kts 162°
2026-04-30 11:23 31.15123 121.79197 27 ft 20 kts 162°
2026-04-30 11:24 31.14955 121.79260 28 ft 30 kts 163°
2026-04-30 11:24 31.14735 121.79342 28 ft 35 kts 162°
2026-04-30 11:24 31.14516 121.79426 27 ft 32 kts 162°
2026-04-30 11:25 31.14121 121.79574 27 ft 28 kts 161°
2026-04-30 11:25 31.13935 121.79645 27 ft 28 kts 162°
2026-04-30 11:25 31.13596 121.79773 26 ft 24 kts 162°
2026-04-30 11:26 31.13271 121.79896 26 ft 24 kts 162°
2026-04-30 11:26 31.13110 121.79957 26 ft 24 kts 162°
2026-04-30 11:26 31.12948 121.80017 27 ft 24 kts 162°
2026-04-30 11:27 31.12821 121.80064 27 ft 9 kts 162°
2026-04-30 11:27 31.12764 121.80070 27 ft 9 kts 212°
2026-04-30 11:27 31.12741 121.80003 27 ft 9 kts 253°
2026-04-30 11:27 31.12723 121.79932 27 ft 9 kts 254°
2026-04-30 11:28 31.12759 121.79870 27 ft 0 kts 342°
2026-04-30 11:28 31.12782 121.79861 26 ft 14 kts 342°
2026-04-30 11:28 31.13031 121.79767 30 ft 74 kts 342°
2026-04-30 11:29 31.13770 121.79487 27 ft 147 kts 342°
2026-04-30 11:29 31.14944 121.79054 188 ft 192 kts 343°
2026-04-30 11:29 31.17467 121.78011 1570 ft 195 kts 338°
2026-04-30 11:30 31.20125 121.76829 2187 ft 218 kts 343°
2026-04-30 11:30 31.21609 121.76265 2476 ft 233 kts 344°
2026-04-30 11:30 31.23176 121.75664 2820 ft 246 kts 343°
2026-04-30 11:31 31.24820 121.75024 3398 ft 251 kts 341°
2026-04-30 11:31 31.26487 121.74362 4071 ft 255 kts 340°
2026-04-30 11:31 31.28178 121.73681 4776 ft 257 kts 340°
2026-04-30 11:31 31.29871 121.73001 5497 ft 258 kts 340°
2026-04-30 11:32 31.31577 121.72311 6195 ft 259 kts 340°
2026-04-30 11:32 31.33273 121.71625 6822 ft 263 kts 340°
2026-04-30 11:32 31.35017 121.70922 7419 ft 267 kts 340°
2026-04-30 11:33 31.38597 121.69556 8654 ft 272 kts 340°
2026-04-30 11:33 31.40412 121.68864 9235 ft 276 kts 340°
2026-04-30 11:33 31.42232 121.68169 9801 ft 279 kts 340°
2026-04-30 11:33 31.44096 121.67456 10332 ft 284 kts 339°
2026-04-30 11:34 31.46045 121.66710 10494 ft 304 kts 339°
2026-04-30 11:34 31.48125 121.65919 10658 ft 324 kts 339°
2026-04-30 11:34 31.50339 121.65079 10826 ft 344 kts 339°
2026-04-30 11:34 31.52671 121.64193 11179 ft 357 kts 339°
2026-04-30 11:35 31.54962 121.63145 11548 ft 359 kts 326°
2026-04-30 11:35 31.56814 121.61233 12028 ft 353 kts 308°
2026-04-30 11:35 31.58470 121.59058 12557 ft 360 kts 311°
2026-04-30 11:35 31.60228 121.56953 13280 ft 362 kts 311°
2026-04-30 11:36 31.62002 121.54889 13950 ft 365 kts 311°
2026-04-30 11:36 31.63821 121.52773 14556 ft 369 kts 310°
2026-04-30 11:36 31.65652 121.50631 15167 ft 372 kts 310°
2026-04-30 11:36 31.67492 121.48469 15779 ft 375 kts 309°
2026-04-30 11:37 31.78474 121.35445 19097 ft 391 kts 309°
2026-04-30 11:37 31.94264 121.16633 22800 ft 414 kts 307°
2026-04-30 11:37 32.10570 120.96651 25883 ft 407 kts 296°
2026-04-30 11:37 32.16988 120.71934 28139 ft 408 kts 282°
2026-04-30 11:38 32.18984 120.44840 29921 ft 426 kts 273°
2026-04-30 11:38 32.21328 120.16992 30123 ft 428 kts 273°
2026-04-30 11:38 32.35924 119.65097 30143 ft 492 kts 327°
2026-04-30 11:39 32.57011 119.48468 30093 ft 459 kts 316°
2026-04-30 11:39 32.77767 119.30426 30064 ft 461 kts 318°
2026-04-30 11:39 33.18651 118.94909 30000 ft 446 kts 319°
2026-04-30 11:40 33.38789 118.77449 30240 ft 448 kts 320°
2026-04-30 11:40 33.59181 118.59769 30348 ft 456 kts 321°
2026-04-30 11:40 34.00162 118.24015 30185 ft 451 kts 322°
2026-04-30 11:41 34.20192 118.06498 30149 ft 439 kts 322°
2026-04-30 11:41 34.42602 117.94330 30336 ft 448 kts 342°
2026-04-30 11:41 34.90828 117.77232 30248 ft 455 kts 342°
2026-04-30 11:42 35.14923 117.68430 30137 ft 444 kts 342°
2026-04-30 11:42 35.38322 117.59795 30082 ft 434 kts 343°
2026-04-30 11:42 35.61514 117.51215 30199 ft 437 kts 343°
2026-04-30 11:42 35.84835 117.42518 30226 ft 447 kts 344°
2026-04-30 11:43 36.32612 117.24732 30087 ft 441 kts 345°
2026-04-30 11:43 36.77450 117.02704 30163 ft 435 kts 339°
2026-04-30 11:44 37.22981 116.78777 30138 ft 447 kts 341°
2026-04-30 11:44 37.69702 116.61206 30037 ft 432 kts 344°
2026-04-30 11:45 37.92785 116.52374 30139 ft 436 kts 343°
2026-04-30 11:45 38.13625 116.35494 30155 ft 448 kts 328°
2026-04-30 11:45 38.35594 116.24930 29942 ft 439 kts 16°
2026-04-30 11:45 38.58663 116.35776 30248 ft 445 kts 11°
2026-04-30 11:46 38.83007 116.44210 30127 ft 455 kts 13°
2026-04-30 11:46 39.07003 116.52732 30016 ft 448 kts 13°
2026-04-30 11:46 39.53394 116.72965 30127 ft 440 kts 17°
2026-04-30 11:47 39.92982 116.83128 30226 ft 445 kts 349°
2026-04-30 11:47 40.50688 116.67741 30061 ft 451 kts 342°
2026-04-30 11:48 40.90377 116.55246 30075 ft 442 kts 357°
2026-04-30 11:48 41.38354 116.41414 30266 ft 455 kts 327°
2026-04-30 11:49 41.60420 116.23657 30086 ft 463 kts 329°
2026-04-30 11:49 41.82513 116.05976 29996 ft 458 kts 328°
2026-04-30 11:49 42.00834 115.84571 29833 ft 439 kts 295°
2026-04-30 11:49 42.11989 115.55316 30230 ft 448 kts 300°
2026-04-30 11:50 42.23493 115.24563 30090 ft 469 kts 284°
2026-04-30 11:50 42.20923 114.89562 30187 ft 464 kts 266°
2026-04-30 11:50 42.18623 114.55606 30042 ft 453 kts 267°
2026-04-30 11:50 42.16082 114.22082 30061 ft 447 kts 266°
2026-04-30 11:51 42.13455 113.88424 30186 ft 455 kts 266°
2026-04-30 11:51 42.10677 113.54147 30215 ft 464 kts 266°
2026-04-30 11:51 41.98352 112.86994 30043 ft 450 kts 258°
2026-04-30 11:52 41.95281 112.54780 29889 ft 435 kts 291°
2026-04-30 11:52 42.02381 112.23597 30447 ft 450 kts 285°
2026-04-30 11:52 42.08890 111.90480 30234 ft 461 kts 285°
2026-04-30 11:52 42.15391 111.57315 30072 ft 450 kts 285°
2026-04-30 11:53 42.20423 111.24781 30001 ft 443 kts 268°
2026-04-30 11:53 42.16455 110.92371 30276 ft 445 kts 263°
2026-04-30 11:53 42.09005 110.25337 30148 ft 450 kts 263°
2026-04-30 11:54 42.05167 109.92368 30086 ft 438 kts 263°
2026-04-30 11:54 42.01356 109.60478 30185 ft 437 kts 263°
2026-04-30 11:54 41.97346 109.27757 30248 ft 448 kts 263°
2026-04-30 11:54 41.93158 108.94348 30228 ft 455 kts 263°
2026-04-30 11:55 41.84560 108.28214 30121 ft 440 kts 262°
2026-04-30 11:55 41.80154 107.95487 31581 ft 456 kts 262°
2026-04-30 11:55 41.75486 107.61612 32087 ft 464 kts 262°
2026-04-30 11:56 41.70756 107.28001 31911 ft 449 kts 262°
2026-04-30 11:56 41.66195 106.96300 31866 ft 426 kts 262°
2026-04-30 11:56 41.61673 106.65472 32000 ft 420 kts 262°
2026-04-30 11:56 41.57048 106.34518 32134 ft 428 kts 262°
2026-04-30 11:57 41.51572 106.03106 32034 ft 444 kts 252°
2026-04-30 11:57 41.42177 105.72991 31987 ft 434 kts 252°
2026-04-30 11:57 41.33154 105.43639 31908 ft 423 kts 252°
2026-04-30 11:57 41.24098 105.14770 32029 ft 424 kts 251°
2026-04-30 11:58 41.05604 104.56078 32070 ft 439 kts 252°
2026-04-30 11:58 40.99028 104.25773 31639 ft 419 kts 283°
2026-04-30 11:58 41.07928 103.97590 32185 ft 421 kts 288°
2026-04-30 11:59 41.16303 103.67680 32132 ft 438 kts 288°
2026-04-30 11:59 41.24697 103.37812 31947 ft 433 kts 288°
2026-04-30 11:59 41.32923 103.08165 31880 ft 419 kts 287°
2026-04-30 11:59 41.41109 102.79343 31973 ft 414 kts 288°
2026-04-30 12:00 41.49448 102.50290 32074 ft 422 kts 287°
2026-04-30 12:00 41.57788 102.21016 32076 ft 430 kts 287°
2026-04-30 12:00 41.66200 101.91119 31971 ft 426 kts 287°
2026-04-30 12:00 41.74388 101.61665 31914 ft 415 kts 286°
2026-04-30 12:01 41.85657 101.02981 32135 ft 412 kts 269°
2026-04-30 12:01 41.86275 100.71752 32133 ft 425 kts 270°
2026-04-30 12:01 41.86917 100.39985 31999 ft 422 kts 269°
2026-04-30 12:02 41.87448 100.08718 31957 ft 411 kts 269°
2026-04-30 12:02 41.87886 99.78339 31973 ft 405 kts 269°
2026-04-30 12:02 41.88251 99.47929 32085 ft 411 kts 269°
2026-04-30 12:02 41.88528 99.17107 32108 ft 423 kts 268°
2026-04-30 12:03 41.88885 98.22498 32001 ft 412 kts 267°
2026-04-30 12:04 41.88686 97.60498 32103 ft 424 kts 267°
2026-04-30 12:04 41.88148 96.96928 32007 ft 423 kts 266°
2026-04-30 12:05 41.87281 96.34882 32081 ft 413 kts 266°
2026-04-30 12:05 41.86770 95.72697 32072 ft 424 kts 266°
2026-04-30 12:06 41.91161 95.10606 31922 ft 463 kts 306°
2026-04-30 12:06 42.08411 94.86132 32134 ft 442 kts 302°
2026-04-30 12:06 42.24626 94.60821 32140 ft 450 kts 303°
2026-04-30 12:07 42.57890 94.08802 32124 ft 463 kts 303°
2026-04-30 12:07 42.87733 93.54494 32036 ft 419 kts 282°
2026-04-30 12:07 42.95061 93.23403 32309 ft 444 kts 285°
2026-04-30 12:08 43.03161 92.90621 32251 ft 461 kts 285°
2026-04-30 12:08 43.11148 92.57604 32090 ft 457 kts 285°
2026-04-30 12:08 43.18948 92.24902 32037 ft 444 kts 285°
2026-04-30 12:08 43.26519 91.92683 32143 ft 446 kts 285°
2026-04-30 12:09 43.34136 91.59748 32229 ft 458 kts 286°
2026-04-30 12:09 43.49388 90.92199 32130 ft 461 kts 286°
2026-04-30 12:10 43.63966 90.25406 32134 ft 454 kts 287°
2026-04-30 12:10 43.79210 89.57038 32239 ft 472 kts 288°
2026-04-30 12:11 43.94829 88.89008 32078 ft 454 kts 289°
2026-04-30 12:11 44.11284 88.22649 32255 ft 461 kts 291°
2026-04-30 12:11 44.15361 87.87486 32139 ft 495 kts 252°
2026-04-30 12:12 43.95968 87.60982 31890 ft 475 kts 240°
2026-04-30 12:12 43.82002 87.31025 32349 ft 465 kts 244°
2026-04-30 12:12 43.67493 86.99433 32443 ft 499 kts 240°
2026-04-30 12:12 43.53882 86.66657 31758 ft 468 kts 265°
2026-04-30 12:13 43.58772 86.33787 32225 ft 453 kts 279°
2026-04-30 12:13 43.62281 85.98138 32388 ft 480 kts 281°
2026-04-30 12:13 43.65683 85.61282 32222 ft 482 kts 278°
2026-04-30 12:13 43.68408 85.25250 32089 ft 467 kts 278°
2026-04-30 12:14 43.61777 84.91553 32317 ft 477 kts 232°
2026-04-30 12:14 43.46637 84.61999 32053 ft 476 kts 241°
2026-04-30 12:14 43.33818 84.30320 31684 ft 465 kts 267°
2026-04-30 12:14 43.38522 83.95919 32324 ft 477 kts 280°
2026-04-30 12:15 43.41412 83.58663 32247 ft 494 kts 279°
2026-04-30 12:15 43.43959 83.21281 31994 ft 484 kts 274°
2026-04-30 12:15 43.45028 82.85291 31916 ft 466 kts 275°
2026-04-30 12:15 43.46180 82.49738 32042 ft 465 kts 274°
2026-04-30 12:16 43.47198 82.13630 32127 ft 477 kts 274°
2026-04-30 12:16 43.48897 81.40086 31937 ft 479 kts 273°
2026-04-30 12:16 43.49540 81.03793 31874 ft 465 kts 273°
2026-04-30 12:17 43.51554 80.32652 32056 ft 468 kts 275°
2026-04-30 12:17 43.53902 79.60724 31885 ft 468 kts 275°
2026-04-30 12:18 43.54905 79.24928 32148 ft 473 kts 275°
2026-04-30 12:18 43.55804 78.88358 33791 ft 480 kts 274°
2026-04-30 12:18 43.56598 78.51237 33990 ft 481 kts 274°
2026-04-30 12:18 43.57254 78.15272 33808 ft 462 kts 274°
2026-04-30 12:19 43.57799 77.80609 33793 ft 443 kts 274°
2026-04-30 12:19 43.58272 77.46630 33926 ft 443 kts 274°
2026-04-30 12:19 43.59499 77.12672 34020 ft 454 kts 274°
2026-04-30 12:19 43.59850 76.77196 34014 ft 466 kts 272°
2026-04-30 12:20 43.59974 76.41399 33904 ft 465 kts 271°
2026-04-30 12:20 43.61219 76.06146 33873 ft 454 kts 275°
2026-04-30 12:20 43.64249 75.37081 33952 ft 455 kts 274°
2026-04-30 12:21 43.66862 74.65726 33928 ft 468 kts 272°
2026-04-30 12:21 43.69035 73.95080 33806 ft 453 kts 272°
2026-04-30 12:22 43.66983 73.25409 33975 ft 460 kts 265°
2026-04-30 12:22 43.65035 72.89634 33993 ft 471 kts 264°
2026-04-30 12:22 43.62926 72.53878 33919 ft 472 kts 264°
2026-04-30 12:23 43.58374 71.82605 33847 ft 458 kts 263°
2026-04-30 12:23 43.55966 71.47458 33962 ft 460 kts 262°
2026-04-30 12:23 43.53420 71.11901 34013 ft 470 kts 262°
2026-04-30 12:24 43.47891 70.39941 33890 ft 473 kts 262°
2026-04-30 12:24 43.41973 69.69058 33857 ft 459 kts 261°
2026-04-30 12:25 43.39075 69.34456 33961 ft 463 kts 261°
2026-04-30 12:25 43.36042 68.98788 33974 ft 474 kts 262°
2026-04-30 12:25 43.28429 68.26988 33754 ft 468 kts 255°
2026-04-30 12:26 43.15428 67.58998 33881 ft 462 kts 255°
2026-04-30 12:26 43.01996 66.89883 33920 ft 476 kts 254°
2026-04-30 12:27 42.88130 66.20766 33767 ft 463 kts 253°
2026-04-30 12:27 42.74124 65.54042 33913 ft 462 kts 252°
2026-04-30 12:28 42.59369 64.85684 33899 ft 474 kts 252°
2026-04-30 12:28 42.44307 64.18080 33795 ft 459 kts 251°
2026-04-30 12:29 42.29231 63.52399 33964 ft 465 kts 250°
2026-04-30 12:29 42.13215 62.85022 33892 ft 468 kts 250°
2026-04-30 12:30 42.05253 62.52115 33851 ft 457 kts 250°
2026-04-30 12:30 41.97446 62.20235 33883 ft 447 kts 250°
2026-04-30 12:30 41.81462 61.56308 34017 ft 458 kts 249°
2026-04-30 12:31 41.64690 60.91336 33923 ft 459 kts 249°
2026-04-30 12:31 41.49120 60.27811 33934 ft 448 kts 250°
2026-04-30 12:32 41.33756 59.63548 34066 ft 467 kts 255°
2026-04-30 12:32 41.27507 58.95380 33904 ft 450 kts 258°
2026-04-30 12:33 41.20895 58.30109 34012 ft 446 kts 257°
2026-04-30 12:33 41.13812 57.64159 34025 ft 456 kts 257°
2026-04-30 12:34 41.06376 56.98608 33951 ft 439 kts 256°
2026-04-30 12:34 41.02644 56.66942 34057 ft 441 kts 256°
2026-04-30 12:34 41.00274 56.34096 34180 ft 458 kts 266°
2026-04-30 12:35 40.99516 55.66544 34010 ft 454 kts 264°
2026-04-30 12:35 40.98263 55.00667 34126 ft 449 kts 264°
2026-04-30 12:36 40.96562 54.33513 34157 ft 465 kts 264°
2026-04-30 12:36 40.94820 53.76923 34046 ft 455 kts 264°
2026-04-30 12:37 40.92446 53.10830 34172 ft 453 kts 264°
2026-04-30 12:37 40.87903 52.43664 34146 ft 458 kts 255°
2026-04-30 12:38 40.77216 51.78581 34068 ft 447 kts 256°
2026-04-30 12:38 40.71084 51.13713 34243 ft 452 kts 265°
2026-04-30 12:39 40.68035 50.46425 34137 ft 460 kts 264°
2026-04-30 12:39 40.64717 49.80623 34105 ft 446 kts 264°
2026-04-30 12:40 40.61064 49.14833 34239 ft 457 kts 266°
2026-04-30 12:40 40.59718 48.48097 34075 ft 450 kts 267°
2026-04-30 12:41 40.58451 47.83379 34118 ft 443 kts 272°
2026-04-30 12:41 40.60724 47.17828 34174 ft 455 kts 272°
2026-04-30 12:42 40.67349 46.52354 34056 ft 442 kts 277°
2026-04-30 12:42 40.70477 46.19981 34580 ft 453 kts 277°
2026-04-30 12:42 40.73590 45.86808 35993 ft 463 kts 276°
2026-04-30 12:43 40.76655 45.52969 36165 ft 470 kts 275°
2026-04-30 12:43 40.78323 45.18993 36070 ft 456 kts 272°
2026-04-30 12:43 40.79711 44.86168 35980 ft 439 kts 272°
2026-04-30 12:43 40.80980 44.54345 36011 ft 430 kts 272°
2026-04-30 12:44 40.83252 43.90786 36185 ft 444 kts 272°
2026-04-30 12:44 40.86409 43.24857 36081 ft 446 kts 274°
2026-04-30 12:45 40.89619 42.60747 36070 ft 430 kts 273°
2026-04-30 12:45 40.92463 41.97183 36229 ft 442 kts 272°
2026-04-30 12:46 40.95023 41.31756 36106 ft 444 kts 272°
2026-04-30 12:46 40.97158 40.67767 36122 ft 427 kts 272°
2026-04-30 12:47 40.98911 40.04180 36215 ft 441 kts 271°
2026-04-30 12:47 40.99802 39.75244 36169 ft 438 kts 277°
2026-04-30 12:48 41.00624 39.67360 36163 ft 432 kts 277°
2026-04-30 12:48 41.01425 39.59460 36152 ft 430 kts 276°
2026-04-30 12:49 41.02176 39.51655 36160 ft 429 kts 276°
2026-04-30 12:49 41.02909 39.43836 36166 ft 430 kts 276°
2026-04-30 12:50 41.03642 39.35991 36161 ft 431 kts 276°
2026-04-30 12:50 41.04376 39.28081 36156 ft 433 kts 276°
2026-04-30 12:51 41.05110 39.20131 36156 ft 434 kts 276°
2026-04-30 12:51 41.05839 39.12174 36162 ft 435 kts 276°
2026-04-30 12:52 41.06575 39.04247 36158 ft 436 kts 276°
2026-04-30 12:52 41.07322 38.96263 36157 ft 436 kts 276°
2026-04-30 12:53 41.08056 38.88328 36155 ft 435 kts 276°
2026-04-30 12:53 41.08782 38.80351 36157 ft 435 kts 276°
2026-04-30 12:54 41.09504 38.72383 36158 ft 434 kts 276°
2026-04-30 12:54 41.10189 38.64458 36155 ft 434 kts 275°
2026-04-30 12:55 41.10845 38.56499 36155 ft 433 kts 275°
2026-04-30 12:55 41.11512 38.48625 36158 ft 432 kts 275°
2026-04-30 12:56 41.12181 38.40692 36158 ft 432 kts 275°
2026-04-30 12:56 41.12841 38.32763 36156 ft 432 kts 275°
2026-04-30 12:57 41.13493 38.24861 36156 ft 431 kts 275°
2026-04-30 12:57 41.14135 38.16930 36158 ft 431 kts 275°
2026-04-30 12:58 41.14768 38.09038 36157 ft 432 kts 275°
2026-04-30 12:58 41.15395 38.01153 36157 ft 431 kts 275°
2026-04-30 12:59 41.16019 37.93223 36155 ft 431 kts 275°
2026-04-30 12:59 41.16646 37.85354 36146 ft 430 kts 275°
2026-04-30 13:00 41.17343 37.77453 36150 ft 430 kts 275°
2026-04-30 13:00 41.18037 37.69536 36144 ft 430 kts 275°
2026-04-30 13:01 41.18712 37.61654 36132 ft 430 kts 275°
2026-04-30 13:01 41.19128 37.53788 36134 ft 429 kts 272°
2026-04-30 13:02 41.19654 37.45862 36132 ft 430 kts 275°
2026-04-30 13:02 41.20271 37.37972 36128 ft 432 kts 274°
2026-04-30 13:03 41.20858 37.30025 36117 ft 432 kts 274°
2026-04-30 13:03 41.21430 37.22073 36108 ft 432 kts 274°
2026-04-30 13:04 41.22040 37.14173 36109 ft 432 kts 275°
2026-04-30 13:04 41.22676 37.06237 36104 ft 432 kts 275°
2026-04-30 13:05 41.23303 36.98278 36100 ft 433 kts 275°
2026-04-30 13:06 41.24225 36.86382 36101 ft 432 kts 274°
2026-04-30 13:06 41.24832 36.78400 36102 ft 432 kts 274°
2026-04-30 13:07 41.25434 36.70479 36104 ft 432 kts 274°
2026-04-30 13:07 41.26029 36.62561 36101 ft 432 kts 274°
2026-04-30 13:08 41.26849 36.54645 36106 ft 433 kts 280°
2026-04-30 13:08 41.28581 36.46954 36106 ft 434 kts 286°
2026-04-30 13:09 41.30549 36.39336 36102 ft 434 kts 286°
2026-04-30 13:09 41.32484 36.31755 36102 ft 433 kts 285°
2026-04-30 13:10 41.34414 36.24140 36100 ft 434 kts 285°
2026-04-30 13:10 41.36326 36.16562 36099 ft 434 kts 285°
2026-04-30 13:11 41.38248 36.08921 36094 ft 434 kts 285°
2026-04-30 13:11 41.40143 36.01345 36093 ft 433 kts 285°
2026-04-30 13:12 41.42048 35.93735 36092 ft 433 kts 285°
2026-04-30 13:12 41.43955 35.86091 36078 ft 434 kts 285°
2026-04-30 13:13 41.46786 35.74669 36073 ft 433 kts 285°
2026-04-30 13:14 41.49620 35.63192 36080 ft 433 kts 285°
2026-04-30 13:14 41.52431 35.51753 36073 ft 433 kts 285°
2026-04-30 13:15 41.55222 35.40349 36090 ft 432 kts 285°
2026-04-30 13:16 41.57083 35.32704 36096 ft 433 kts 285°
2026-04-30 13:16 41.58945 35.25022 36106 ft 434 kts 285°
2026-04-30 13:17 41.61720 35.13541 36112 ft 433 kts 285°
2026-04-30 13:18 41.64481 35.02055 36113 ft 434 kts 285°
2026-04-30 13:18 41.67235 34.90556 36137 ft 433 kts 285°
2026-04-30 13:19 41.69067 34.82858 36114 ft 434 kts 285°
2026-04-30 13:19 41.70902 34.75139 36116 ft 433 kts 284°
2026-04-30 13:20 41.72721 34.67461 36130 ft 434 kts 284°
2026-04-30 13:20 41.74542 34.59741 36131 ft 434 kts 284°
2026-04-30 13:21 41.76347 34.52056 36118 ft 434 kts 284°
2026-04-30 13:22 41.79049 34.40493 36114 ft 434 kts 284°
2026-04-30 13:22 41.81753 34.28891 36102 ft 434 kts 284°
2026-04-30 13:23 41.84425 34.17343 36088 ft 433 kts 284°
2026-04-30 13:24 41.87966 34.01946 36075 ft 432 kts 284°
2026-04-30 13:25 41.91189 33.87842 36082 ft 431 kts 284°
2026-04-30 13:26 41.95534 33.68635 36073 ft 431 kts 283°
2026-04-30 13:28 41.99248 33.49157 36068 ft 432 kts 282°
2026-04-30 13:28 42.01490 33.37416 36082 ft 431 kts 282°
2026-04-30 13:29 42.04452 33.21838 36067 ft 430 kts 281°
2026-04-30 13:31 42.08178 33.02388 36061 ft 428 kts 282°
2026-04-30 13:32 42.12135 32.83157 36076 ft 426 kts 282°
2026-04-30 13:33 42.15290 32.67702 36078 ft 428 kts 282°
2026-04-30 13:34 42.17633 32.56060 36075 ft 431 kts 282°
2026-04-30 13:35 42.20755 32.40447 36078 ft 432 kts 282°
2026-04-30 13:36 42.23851 32.24801 36072 ft 432 kts 282°
2026-04-30 13:36 42.26168 32.13071 36084 ft 432 kts 282°
2026-04-30 13:37 42.28475 32.01295 36083 ft 431 kts 282°
2026-04-30 13:38 42.30751 31.89570 36082 ft 431 kts 282°
2026-04-30 13:39 42.33774 31.73892 36088 ft 430 kts 282°
2026-04-30 13:40 42.36016 31.62188 36095 ft 430 kts 282°
2026-04-30 13:40 42.37510 31.54346 36092 ft 429 kts 282°
2026-04-30 13:41 42.38987 31.46563 36093 ft 429 kts 282°
2026-04-30 13:41 42.40468 31.38729 36092 ft 429 kts 281°
2026-04-30 13:42 42.41935 31.30939 36092 ft 428 kts 281°
2026-04-30 13:42 42.44128 31.19236 36096 ft 428 kts 281°
2026-04-30 13:43 42.45592 31.11392 36097 ft 428 kts 281°
2026-04-30 13:43 42.47047 31.03562 36101 ft 428 kts 281°
2026-04-30 13:44 42.48490 30.95784 36102 ft 428 kts 281°
2026-04-30 13:44 42.49936 30.87955 36102 ft 427 kts 281°
2026-04-30 13:45 42.52089 30.76252 36104 ft 427 kts 281°
2026-04-30 13:46 42.53523 30.68410 36112 ft 427 kts 281°
2026-04-30 13:46 42.54951 30.60570 36109 ft 427 kts 281°
2026-04-30 13:47 42.56362 30.52786 36108 ft 427 kts 281°
2026-04-30 13:47 42.57769 30.44984 36114 ft 427 kts 281°
2026-04-30 13:48 42.59183 30.37124 36118 ft 427 kts 281°
2026-04-30 13:48 42.60838 30.29405 36121 ft 431 kts 289°
2026-04-30 13:49 42.63579 30.22123 36121 ft 436 kts 297°
2026-04-30 13:49 42.67200 30.15445 36133 ft 439 kts 303°
2026-04-30 13:50 42.70956 30.08919 36126 ft 440 kts 303°
2026-04-30 13:50 42.76593 29.99032 36150 ft 440 kts 302°
2026-04-30 13:51 42.80307 29.92457 36147 ft 439 kts 302°
2026-04-30 13:51 42.84021 29.85847 36147 ft 439 kts 302°
2026-04-30 13:52 42.87734 29.79224 36155 ft 438 kts 302°
2026-04-30 13:52 42.91401 29.72668 36156 ft 437 kts 302°
2026-04-30 13:53 42.95099 29.66045 36158 ft 437 kts 302°
2026-04-30 13:53 42.98758 29.59476 36165 ft 436 kts 302°
2026-04-30 13:54 43.02444 29.52850 36166 ft 436 kts 302°
2026-04-30 13:54 43.06091 29.46272 36173 ft 435 kts 302°
2026-04-30 13:55 43.09762 29.39632 36177 ft 436 kts 302°
2026-04-30 13:55 43.13400 29.33036 36180 ft 436 kts 301°
2026-04-30 13:56 43.17051 29.26389 36181 ft 436 kts 302°
2026-04-30 13:56 43.20680 29.19788 36186 ft 436 kts 302°
2026-04-30 13:57 43.24334 29.13132 36196 ft 436 kts 302°
2026-04-30 13:57 43.27992 29.06454 36196 ft 436 kts 301°
2026-04-30 13:58 43.33417 28.96508 36196 ft 436 kts 301°
2026-04-30 13:59 43.37050 28.89827 36199 ft 436 kts 301°
2026-04-30 13:59 43.40687 28.83125 36204 ft 436 kts 301°
2026-04-30 14:00 43.44300 28.76454 36205 ft 436 kts 301°
2026-04-30 14:00 43.49740 28.66383 36215 ft 436 kts 301°
2026-04-30 14:01 43.53343 28.59693 36211 ft 436 kts 301°
2026-04-30 14:01 43.56964 28.52955 36212 ft 436 kts 301°
2026-04-30 14:02 43.60562 28.46253 36210 ft 436 kts 302°
2026-04-30 14:02 43.64178 28.39512 36213 ft 436 kts 302°
2026-04-30 14:03 43.67788 28.32752 36213 ft 436 kts 302°
2026-04-30 14:03 43.71361 28.26037 36210 ft 436 kts 301°
2026-04-30 14:04 43.74959 28.19260 36220 ft 436 kts 301°
2026-04-30 14:04 43.78531 28.12525 36220 ft 436 kts 301°
2026-04-30 14:05 43.82075 28.05705 36209 ft 434 kts 298°
2026-04-30 14:05 43.85046 27.98431 36220 ft 432 kts 295°
2026-04-30 14:06 43.89406 27.87530 36217 ft 432 kts 295°
2026-04-30 14:07 43.93786 27.76623 36222 ft 432 kts 295°
2026-04-30 14:08 43.98176 27.65675 36229 ft 432 kts 295°
2026-04-30 14:08 44.02546 27.54735 36227 ft 433 kts 295°
2026-04-30 14:09 44.05477 27.47376 36233 ft 434 kts 295°
2026-04-30 14:10 44.09853 27.36352 36237 ft 435 kts 295°
2026-04-30 14:10 44.12285 27.30207 36243 ft 435 kts 295°
2026-04-30 14:11 44.15681 27.21599 36239 ft 436 kts 295°
2026-04-30 14:11 44.18111 27.15427 36241 ft 436 kts 295°
2026-04-30 14:12 44.21028 27.08000 36244 ft 436 kts 295°
2026-04-30 14:12 44.23922 27.00613 36249 ft 436 kts 295°
2026-04-30 14:13 44.26830 26.93170 36260 ft 436 kts 295°
2026-04-30 14:13 44.29730 26.85724 36257 ft 437 kts 295°
2026-04-30 14:14 44.32629 26.78271 36265 ft 437 kts 295°
2026-04-30 14:14 44.35519 26.70808 36269 ft 436 kts 295°
2026-04-30 14:15 44.38402 26.63348 36278 ft 436 kts 295°
2026-04-30 14:15 44.41282 26.55876 36284 ft 436 kts 295°
2026-04-30 14:16 44.44158 26.48396 36283 ft 437 kts 294°
2026-04-30 14:16 44.47025 26.40906 36286 ft 436 kts 294°
2026-04-30 14:17 44.49867 26.33461 36297 ft 436 kts 294°
2026-04-30 14:17 44.52727 26.25960 36293 ft 436 kts 294°
2026-04-30 14:18 44.55582 26.18456 36295 ft 436 kts 294°
2026-04-30 14:18 44.59863 26.07163 36294 ft 436 kts 294°
2026-04-30 14:19 44.64108 25.95919 36294 ft 436 kts 294°
2026-04-30 14:20 44.66950 25.88359 36292 ft 436 kts 294°
2026-04-30 14:20 44.71214 25.77009 36295 ft 437 kts 294°
2026-04-30 14:21 44.74027 25.69473 36296 ft 438 kts 294°
2026-04-30 14:22 44.78280 25.58051 36295 ft 439 kts 294°
2026-04-30 14:22 44.82544 25.46564 36294 ft 441 kts 294°
2026-04-30 14:23 44.88200 25.31234 36295 ft 443 kts 294°
2026-04-30 14:24 44.92462 25.19624 36294 ft 445 kts 294°
2026-04-30 14:25 44.98129 25.04117 36294 ft 445 kts 294°
2026-04-30 14:26 45.02386 24.92405 36285 ft 446 kts 294°
2026-04-30 14:27 45.06619 24.80719 36298 ft 446 kts 294°
2026-04-30 14:27 45.09444 24.72884 36291 ft 446 kts 294°
2026-04-30 14:28 45.13663 24.61145 36283 ft 447 kts 294°
2026-04-30 14:28 45.16479 24.53284 36284 ft 448 kts 294°
2026-04-30 14:29 45.21641 24.38807 36291 ft 449 kts 294°
2026-04-30 14:31 45.29153 24.17602 36288 ft 452 kts 294°
2026-04-30 14:31 45.33369 24.05629 36279 ft 453 kts 294°
2026-04-30 14:32 45.37602 23.93553 36274 ft 455 kts 295°
2026-04-30 14:33 45.40406 23.85527 36284 ft 455 kts 295°
2026-04-30 14:33 45.44643 23.73349 36269 ft 457 kts 295°
2026-04-30 14:34 45.47445 23.65259 36270 ft 458 kts 294°
2026-04-30 14:34 45.50268 23.57096 36268 ft 458 kts 294°
2026-04-30 14:35 45.54474 23.44847 36268 ft 458 kts 294°
2026-04-30 14:36 45.57263 23.36715 36274 ft 458 kts 294°
2026-04-30 14:36 45.60058 23.28544 36281 ft 457 kts 294°
2026-04-30 14:37 45.62840 23.20378 36273 ft 457 kts 294°
2026-04-30 14:37 45.65621 23.12192 36278 ft 456 kts 294°
2026-04-30 14:38 45.68370 23.04071 36276 ft 456 kts 294°
2026-04-30 14:38 45.71130 22.95901 36263 ft 456 kts 294°
2026-04-30 14:39 45.73891 22.87702 36267 ft 456 kts 294°
2026-04-30 14:39 45.76649 22.79485 36267 ft 456 kts 294°
2026-04-30 14:40 45.80759 22.67201 36274 ft 458 kts 295°
2026-04-30 14:40 45.83519 22.58936 36273 ft 459 kts 295°
2026-04-30 14:41 45.86250 22.50707 36266 ft 460 kts 295°
2026-04-30 14:41 45.89007 22.42369 36259 ft 462 kts 295°
2026-04-30 14:42 45.91762 22.34007 36260 ft 463 kts 295°
2026-04-30 14:42 45.94500 22.25677 36257 ft 464 kts 295°
2026-04-30 14:43 45.97254 22.17272 36259 ft 465 kts 295°
2026-04-30 14:43 46.00014 22.08833 36260 ft 465 kts 295°
2026-04-30 14:44 46.02743 22.00430 36257 ft 466 kts 295°
2026-04-30 14:44 46.05483 21.91964 36257 ft 466 kts 295°
2026-04-30 14:45 46.08219 21.83505 36259 ft 466 kts 295°
2026-04-30 14:45 46.10962 21.75009 36259 ft 466 kts 295°
2026-04-30 14:46 46.13688 21.66524 36259 ft 466 kts 295°
2026-04-30 14:46 46.15949 21.59462 36259 ft 465 kts 295°
2026-04-30 14:47 46.19104 21.49582 36265 ft 465 kts 295°
2026-04-30 14:47 46.21795 21.41126 36267 ft 465 kts 295°
2026-04-30 14:48 46.24500 21.32602 36267 ft 466 kts 295°
2026-04-30 14:48 46.27203 21.24069 36269 ft 466 kts 295°
2026-04-30 14:49 46.29884 21.15559 36267 ft 467 kts 295°
2026-04-30 14:49 46.32581 21.06972 36269 ft 468 kts 295°
2026-04-30 14:50 46.36602 20.94107 36270 ft 469 kts 295°
2026-04-30 14:51 46.40617 20.81197 36277 ft 469 kts 295°
2026-04-30 14:52 46.44630 20.68226 36277 ft 469 kts 295°
2026-04-30 14:52 46.48611 20.55303 36289 ft 469 kts 295°
2026-04-30 14:53 46.52596 20.42291 36297 ft 469 kts 295°
2026-04-30 14:54 46.57427 20.26434 36301 ft 469 kts 295°
2026-04-30 14:55 46.61381 20.13370 36324 ft 470 kts 295°
2026-04-30 14:56 46.66615 19.95977 36312 ft 470 kts 295°
2026-04-30 14:57 46.70522 19.82879 36329 ft 470 kts 295°
2026-04-30 14:58 46.75719 19.65442 36319 ft 470 kts 295°
2026-04-30 14:58 46.79591 19.52328 36324 ft 470 kts 295°
2026-04-30 15:00 46.82835 19.41297 36317 ft 470 kts 295°
2026-04-30 15:01 46.87674 19.24720 36328 ft 471 kts 295°
2026-04-30 15:01 46.91517 19.11520 36329 ft 471 kts 295°
2026-04-30 15:02 46.94077 19.02680 36328 ft 471 kts 295°
2026-04-30 15:03 47.00436 18.80560 36331 ft 471 kts 295°
2026-04-30 15:04 47.06748 18.58400 36334 ft 472 kts 295°
2026-04-30 15:06 47.13028 18.36150 36338 ft 472 kts 295°
2026-04-30 15:07 47.18022 18.18316 36346 ft 472 kts 295°
2026-04-30 15:08 47.22987 18.00445 36364 ft 473 kts 295°
2026-04-30 15:09 47.29186 17.77942 36372 ft 475 kts 294°
2026-04-30 15:10 47.34109 17.59922 36376 ft 475 kts 294°
2026-04-30 15:11 47.41470 17.32714 36376 ft 476 kts 294°
2026-04-30 15:13 47.47551 17.10005 36378 ft 476 kts 294°
2026-04-30 15:14 47.55995 16.78091 36372 ft 477 kts 294°
2026-04-30 15:17 47.67138 16.36956 36374 ft 480 kts 295°
2026-04-30 15:19 47.77008 16.00004 36369 ft 483 kts 295°